Regional Weather Roundup
Issued by NWS Little Rock, AR

Home | Current Version | Previous Version | Text Only | Print | Product List | Glossary On
Versions: 1 2 3 4 5 6 7 8 9 10 11 12 13 14 15 16 17 18 19 20 21 22 23 24 25 26 27
000
ASUS44 KLZK 300705
RWRLZK

WEATHER ROUNDUP FOR ARKANSAS
NATIONAL WEATHER SERVICE LITTLE ROCK AR
200 AM CDT SAT APR 30 2016

NOTE: "FAIR" INDICATES FEW OR NO CLOUDS BELOW 12,000 FEET WITH NO
SIGNIFICANT WEATHER AND/OR OBSTRUCTIONS TO VISIBILITY.

ARZ001-003-010-029-300800-
NORTHWEST ARKANSAS

CITY           SKY/WX    TMP DP  RH WIND       PRES   REMARKS
FAYETTEVILLE   LGT RAIN  64  63  96 E16G29    29.61F
FORT SMITH     CLOUDY    65  62  90 E13       29.62F
HARRISON       HVY RAIN  62  62 100 W3        29.76F FOG
BENTONVILLE    CLOUDY   N/A N/A N/A E6G20     29.66F
ROGERS         LGT RAIN  63  61  93 E16G24    29.63F
SILOAM SPGS    CLOUDY    63  55  77 E5        29.64F
HIGHFILL       CLOUDY    64  63  96 E8        29.64F
$$

ARZ004-005-016-300800-
NORTH CENTRAL ARKANSAS

CITY           SKY/WX    TMP DP  RH WIND       PRES   REMARKS
BATESVILLE     CLOUDY    64  61  88 E13G18    29.80F
FLIPPIN        CLOUDY   N/A N/A N/A E5        29.74F
MTN HOME       HVY RAIN  62  61  96 E5        29.76F FOG
$$

ARZ040-041-300800-
WEST CENTRAL ARKANSAS

CITY           SKY/WX    TMP DP  RH WIND       PRES   REMARKS
MENA           CLOUDY    68  66  94 S7        29.70R THUNDER
MOUNT IDA      HVY RAIN  65  62  90 SE15G25   29.63F FOG
$$

ARZ009-017-025-026-028-300800-
NORTHEAST ARKANSAS

CITY           SKY/WX    TMP DP  RH WIND       PRES   REMARKS
CORNING        RAIN      61  61 100 E10       29.86S
JONESBORO      TSTM      63  63 100 SW5       29.86R FOG
NEWPORT        LGT RAIN  64  64 100 E9        29.81F
WALNUT RIDGE   CLOUDY    63  59  88 E6        29.84S
BLYTHEVILLE    HVY RAIN  62  62 100 NE9       29.84F VSB 1
$$

ARZ022-023-033-042-044-300800-
CENTRAL ARKANSAS

CITY           SKY/WX    TMP DP  RH WIND       PRES   REMARKS
LITTLE ROCK    TSTM      67  65  93 SE10      29.78R FOG
N LITTLE ROCK    N/A     65  64  98 E10G25    29.74F
JACKSONVILLE   LGT RAIN  64  64 100 E8        29.76F FOG
SEARCY         RAIN      65  65 100 E6        29.81S
HOT SPRINGS    HVY RAIN  66  62  87 S14G23    29.74R FOG
RUSSELLVILLE   HVY RAIN  66  64  93 VRB6G17   29.69F FOG
$$

ARZ036-300800-
EAST ARKANSAS

CITY           SKY/WX    TMP DP  RH WIND       PRES   REMARKS
WEST MEMPHIS   CLOUDY    64  63  96 NE5       29.81F
$$

ARZ050-053-066-070-073-300800-
SOUTHWEST ARKANSAS

CITY           SKY/WX    TMP DP  RH WIND       PRES   REMARKS
CAMDEN         HVY RAIN  66  64  94 SW6       29.79R
TEXARKANA      HVY RAIN  66  64  93 SE14G24   29.67S FOG
EL DORADO      RAIN      69  69 100 S5        29.79R FOG
DE QUEEN       LGT RAIN  65  65 100 NE10      29.61F FOG
$$

ARZ056-057-069-300800-
SOUTHEAST ARKANSAS

CITY           SKY/WX    TMP DP  RH WIND       PRES   REMARKS
PINE BLUFF     RAIN      68  67  96 SE6       29.78R
STUTTGART      CLOUDY    66  63  88 SE8       29.80R
MONTICELLO     CLOUDY    71  69  93 SE10      29.78R

$$






USA.gov is the U.S. government's official web portal to all federal, state and local government web resources and services.